Home > Weather > Örebro > Past weeks

Flag for Sweden Weather for the Past 2 Weeks in Örebro, Sweden

Now
46 °F

Sunny.


Feels Like: 42 °F
Forecast: 39 / 57 °F
Wind: 8 mph from Southeast

Location: Orebro Private

Current Time: Apr 29, 2016 at 10:05:48 PM

Latest Report: Apr 29, 2016 at 9:20 PM


Visibility: 10 mi

Pressure: 30.15 "Hg

Humidity: 66%

Dew Point: 36 °F

Location of ÖrebroLocation

Historic Weather in Örebro — Graph

°F

Örebro Temperature Yesterday

Maximum temperature yesterday: 43 °F (at 11:20 AM)
Minimum temperature yesterday: 34 °F (at 7:50 PM)
Average temperature yesterday: 38 °F

High & Low Weather Summary for the Past Weeks

 TemperatureHumidityPressure
High57 °F (Apr 20, 5:50 PM)100% (Apr 17, 6:50 AM)30.15 "Hg (Apr 17, 6:50 AM)
Low27 °F (Apr 25, 5:20 AM)18% (Apr 20, 2:50 PM)29.39 "Hg (Apr 17, 3:50 AM)
Average43 °F69%29.73 "Hg
* Reported Apr 14 8:20 PM — Apr 29 8:50 PM, Örebro, Weather by CustomWeather, © 2016

Note: Actual official high and low records may vary slightly from our data, if they occured in-between our weather recording intervals... More about our weather records

Advertising

Örebro Weather History for the Previous 24 Hours

Scroll right to see more
 ConditionsComfort  
Time TempWeatherWind HumidityBarometerVisibility
8:50 PM
Fri, Apr 29
46 °FSunny.8 mph66%30.15 "Hg10 mi
8:20 PM46 °FSunny.7 mph66%30.12 "Hg10 mi
7:50 PM48 °FSunny.8 mph62%30.12 "Hg10 mi
7:20 PM48 °FPartly sunny.10 mph62%30.12 "HgN/A
6:50 PM50 °FScattered showers. Passing clouds.7 mph58%30.12 "HgN/A
6:20 PM50 °FSunny.9 mph54%30.09 "Hg10 mi
5:50 PM46 °FPassing clouds.15 mph66%30.09 "HgN/A
5:20 PM50 °FPassing clouds.28 mph54%30.09 "HgN/A
4:50 PM54 °FSunny.17 mph41%30.09 "Hg10 mi
4:20 PM52 °FSunny.14 mph41%30.07 "Hg10 mi
3:50 PM52 °FSunny.13 mph44%30.07 "Hg10 mi
3:20 PM54 °FPassing clouds.16 mph44%30.07 "HgN/A
2:50 PM52 °FSunny.20 mph44%30.07 "Hg10 mi
2:20 PM52 °FSunny.21 mph41%30.07 "Hg10 mi
1:50 PM52 °FSunny.21 mph44%30.04 "Hg10 mi
1:20 PM52 °FScattered clouds.20 mph44%30.04 "HgN/A
12:50 PM50 °FPassing clouds.18 mph54%30.04 "HgN/A
12:20 PM50 °FPartly sunny.17 mph54%30.01 "HgN/A
11:50 AM48 °FPartly sunny.16 mph62%30.01 "HgN/A
11:20 AM46 °FPartly sunny.18 mph66%30.01 "HgN/A
10:50 AM46 °FScattered clouds.17 mph66%29.98 "HgN/A
10:20 AM46 °FBroken clouds.16 mph71%29.98 "HgN/A
9:50 AM45 °FBroken clouds.16 mph76%29.95 "HgN/A
9:20 AM43 °FPartly sunny.16 mph81%29.95 "HgN/A
8:50 AM43 °FBroken clouds.14 mph81%29.92 "HgN/A
8:20 AM41 °FBroken clouds.13 mph87%29.89 "HgN/A
7:50 AM41 °FBroken clouds.13 mph81%29.89 "HgN/A
7:20 AM41 °FBroken clouds.12 mph81%29.86 "HgN/A
6:50 AM39 °FBroken clouds.10 mph87%29.86 "HgN/A
6:20 AM39 °FPartly sunny.12 mph87%29.83 "HgN/A
5:50 AM39 °FPassing clouds.12 mph87%29.80 "HgN/A
4:50 AM39 °FPassing clouds.10 mph87%29.77 "HgN/A
4:20 AM39 °FPartly cloudy.13 mph87%29.77 "HgN/A
3:50 AM39 °FPassing clouds.10 mph87%29.77 "HgN/A
3:20 AM39 °FPassing clouds.10 mph87%29.74 "HgN/A
2:50 AM39 °FPassing clouds.13 mph87%29.74 "HgN/A
2:20 AM39 °FPassing clouds.15 mph87%29.71 "HgN/A
1:50 AM39 °FPassing clouds.17 mph87%29.71 "HgN/A
1:20 AM39 °FPassing clouds.18 mph87%29.71 "HgN/A
12:20 AM37 °FPartly cloudy.12 mph87%29.68 "HgN/A
11:50 PM
Thu, Apr 28
36 °FLight rain. Passing clouds.14 mph93%29.68 "HgN/A
11:20 PM36 °FLight rain. Mostly cloudy.12 mph87%29.68 "Hg5 mi
10:50 PM36 °FLight rain. Low clouds.10 mph87%29.68 "Hg3 mi
10:20 PM34 °FLight snow. Low clouds.10 mph93%29.68 "Hg2 mi
Weather by CustomWeather, © 2016

See weather overviewHow to use our weather pages